owner,sensor,date,latitude,longitude,vertical_datum,sea_water_temperature,qcFlag
Shell,ioos:station:wmo:42906:2,2020-05-01T00:02:00Z,28.6150,-87.9186,9.6,24.1,11111222
Shell,ioos:station:wmo:42906:2,2020-05-01T00:12:00Z,28.6150,-87.9186,9.6,24.1,11111222
Shell,ioos:station:wmo:42906:2,2020-05-01T00:22:00Z,28.6150,-87.9186,9.6,24.1,11111222
Shell,ioos:station:wmo:42906:2,2020-05-01T00:32:00Z,28.6150,-87.9186,9.7,24.1,11111222
Shell,ioos:station:wmo:42906:2,2020-05-01T00:42:00Z,28.6150,-87.9186,9.7,24.1,11111222
Shell,ioos:station:wmo:42906:2,2020-05-01T00:52:00Z,28.6150,-87.9186,9.6,24.1,11111222
Shell,ioos:station:wmo:42906:2,2020-05-01T01:02:00Z,28.6150,-87.9186,9.7,24.1,11111222
Shell,ioos:station:wmo:42906:2,2020-05-01T01:12:00Z,28.6150,-87.9186,9.6,24.1,11111222
Shell,ioos:station:wmo:42906:2,2020-05-01T01:22:00Z,28.6150,-87.9186,9.6,24.1,11111222
Shell,ioos:station:wmo:42906:2,2020-05-01T01:32:00Z,28.6150,-87.9186,9.6,24.1,11111222
Shell,ioos:station:wmo:42906:2,2020-05-01T01:42:00Z,28.6150,-87.9186,9.6,24.1,11111222
Shell,ioos:station:wmo:42906:2,2020-05-01T01:52:00Z,28.6150,-87.9186,9.7,24.1,11111222
Shell,ioos:station:wmo:42906:2,2020-05-01T02:02:00Z,28.6150,-87.9186,9.6,24.1,11111222
Shell,ioos:station:wmo:42906:2,2020-05-01T02:12:00Z,28.6150,-87.9186,9.6,24.1,11111222
Shell,ioos:station:wmo:42906:2,2020-05-01T02:22:00Z,28.6150,-87.9186,9.6,24.1,11111222
Shell,ioos:station:wmo:42906:2,2020-05-01T02:32:00Z,28.6150,-87.9186,9.6,24.1,11111222
Shell,ioos:station:wmo:42906:2,2020-05-01T02:42:00Z,28.6150,-87.9186,9.6,24.1,11111222
Shell,ioos:station:wmo:42906:2,2020-05-01T02:52:00Z,28.6150,-87.9186,9.6,24.1,11111222
Shell,ioos:station:wmo:42906:2,2020-05-01T03:02:00Z,28.6150,-87.9186,9.6,24.1,11111222
Shell,ioos:station:wmo:42906:2,2020-05-01T03:12:00Z,28.6150,-87.9186,9.7,24.1,11111222
Shell,ioos:station:wmo:42906:2,2020-05-01T03:22:00Z,28.6150,-87.9186,9.7,24.1,11111222
Shell,ioos:station:wmo:42906:2,2020-05-01T03:32:00Z,28.6150,-87.9186,9.6,24.1,11111222
Shell,ioos:station:wmo:42906:2,2020-05-01T03:42:00Z,28.6150,-87.9186,9.6,24.1,11111222
Shell,ioos:station:wmo:42906:2,2020-05-01T03:52:00Z,28.6150,-87.9186,9.5,24.1,11111222
Shell,ioos:station:wmo:42906:2,2020-05-01T04:02:00Z,28.6150,-87.9186,9.5,24.1,11111222
Shell,ioos:station:wmo:42906:2,2020-05-01T04:12:00Z,28.6150,-87.9186,9.6,24.1,11111222
Shell,ioos:station:wmo:42906:2,2020-05-01T04:22:00Z,28.6150,-87.9186,9.6,24.1,11111222
Shell,ioos:station:wmo:42906:2,2020-05-01T04:32:00Z,28.6150,-87.9186,9.6,24.1,11111222
Shell,ioos:station:wmo:42906:2,2020-05-01T04:42:00Z,28.6150,-87.9186,9.6,24.1,11111222
Shell,ioos:station:wmo:42906:2,2020-05-01T04:52:00Z,28.6150,-87.9186,9.6,24.1,11111222
Shell,ioos:station:wmo:42906:2,2020-05-01T05:02:00Z,28.6150,-87.9186,9.6,24.1,11111222
Shell,ioos:station:wmo:42906:2,2020-05-01T05:12:00Z,28.6150,-87.9186,9.6,24.0,11111222
Shell,ioos:station:wmo:42906:2,2020-05-01T05:22:00Z,28.6150,-87.9186,9.6,24.0,11111222
Shell,ioos:station:wmo:42906:2,2020-05-01T05:32:00Z,28.6150,-87.9186,9.6,24.0,11111222
Shell,ioos:station:wmo:42906:2,2020-05-01T05:42:00Z,28.6150,-87.9186,9.6,24.0,11111222
Shell,ioos:station:wmo:42906:2,2020-05-01T05:52:00Z,28.6150,-87.9186,9.6,24.0,11111222
Shell,ioos:station:wmo:42906:2,2020-05-01T06:02:00Z,28.6150,-87.9186,9.6,24.0,11111222
Shell,ioos:station:wmo:42906:2,2020-05-01T06:12:00Z,28.6150,-87.9186,9.6,24.0,11111222
Shell,ioos:station:wmo:42906:2,2020-05-01T06:22:00Z,28.6150,-87.9186,9.6,24.0,11111222
Shell,ioos:station:wmo:42906:2,2020-05-01T06:32:00Z,28.6150,-87.9186,9.5,24.0,11111222
Shell,ioos:station:wmo:42906:2,2020-05-01T06:42:00Z,28.6150,-87.9186,9.4,24.0,11111222
Shell,ioos:station:wmo:42906:2,2020-05-01T06:52:00Z,28.6150,-87.9186,9.4,24.0,11111222
Shell,ioos:station:wmo:42906:2,2020-05-01T07:02:00Z,28.6150,-87.9186,9.5,24.0,11111222
Shell,ioos:station:wmo:42906:2,2020-05-01T07:13:00Z,28.6150,-87.9186,9.5,24.0,11111222
Shell,ioos:station:wmo:42906:2,2020-05-01T07:23:00Z,28.6150,-87.9186,9.4,24.0,11111222
Shell,ioos:station:wmo:42906:2,2020-05-01T07:33:00Z,28.6150,-87.9186,9.4,24.0,11111222
Shell,ioos:station:wmo:42906:2,2020-05-01T07:43:00Z,28.6150,-87.9186,9.4,24.0,11111222
Shell,ioos:station:wmo:42906:2,2020-05-01T07:53:00Z,28.6150,-87.9186,9.5,24.0,11111222
Shell,ioos:station:wmo:42906:2,2020-05-01T08:03:00Z,28.6150,-87.9186,9.5,24.0,11111222
Shell,ioos:station:wmo:42906:2,2020-05-01T08:13:00Z,28.6150,-87.9186,9.5,24.0,11111222
Shell,ioos:station:wmo:42906:2,2020-05-01T08:23:00Z,28.6150,-87.9186,9.6,24.0,11111222
Shell,ioos:station:wmo:42906:2,2020-05-01T08:33:00Z,28.6150,-87.9186,9.5,24.0,11111222
Shell,ioos:station:wmo:42906:2,2020-05-01T08:43:00Z,28.6150,-87.9186,9.8,24.0,11111222
Shell,ioos:station:wmo:42906:2,2020-05-01T08:53:00Z,28.6150,-87.9186,9.6,24.0,11111222
Shell,ioos:station:wmo:42906:2,2020-05-01T09:03:00Z,28.6150,-87.9186,9.8,24.0,11111222
Shell,ioos:station:wmo:42906:2,2020-05-01T09:13:00Z,28.6150,-87.9186,9.6,24.0,11111222
Shell,ioos:station:wmo:42906:2,2020-05-01T09:23:00Z,28.6150,-87.9186,9.6,23.9,11111222
Shell,ioos:station:wmo:42906:2,2020-05-01T09:33:00Z,28.6150,-87.9186,9.7,23.9,11111222
Shell,ioos:station:wmo:42906:2,2020-05-01T09:43:00Z,28.6150,-87.9186,9.7,23.9,11111222
Shell,ioos:station:wmo:42906:2,2020-05-01T09:53:00Z,28.6150,-87.9186,9.7,23.9,11111222
Shell,ioos:station:wmo:42906:2,2020-05-01T10:03:00Z,28.6150,-87.9186,9.7,23.9,11111222
Shell,ioos:station:wmo:42906:2,2020-05-01T10:13:00Z,28.6150,-87.9186,9.8,23.9,11111222
Shell,ioos:station:wmo:42906:2,2020-05-01T10:23:00Z,28.6150,-87.9186,9.8,23.9,11111222
Shell,ioos:station:wmo:42906:2,2020-05-01T10:33:00Z,28.6150,-87.9186,9.7,23.9,11111222
Shell,ioos:station:wmo:42906:2,2020-05-01T10:43:00Z,28.6150,-87.9186,9.7,23.9,11111222
Shell,ioos:station:wmo:42906:2,2020-05-01T10:53:00Z,28.6150,-87.9186,9.7,23.9,11111222
Shell,ioos:station:wmo:42906:2,2020-05-01T11:03:00Z,28.6150,-87.9186,9.7,23.9,11111222
Shell,ioos:station:wmo:42906:2,2020-05-01T11:13:00Z,28.6150,-87.9186,9.7,23.9,11111222
Shell,ioos:station:wmo:42906:2,2020-05-01T11:23:00Z,28.6150,-87.9186,9.7,23.9,11111222
Shell,ioos:station:wmo:42906:2,2020-05-01T11:33:00Z,28.6150,-87.9186,9.7,23.9,11111222
Shell,ioos:station:wmo:42906:2,2020-05-01T11:43:00Z,28.6150,-87.9186,9.7,23.9,11111222
Shell,ioos:station:wmo:42906:2,2020-05-01T11:53:00Z,28.6150,-87.9186,9.7,23.9,11111222
Shell,ioos:station:wmo:42906:2,2020-05-01T12:03:00Z,28.6150,-87.9186,9.7,23.9,11111222
Shell,ioos:station:wmo:42906:2,2020-05-01T12:13:00Z,28.6150,-87.9186,9.7,23.9,11111222
Shell,ioos:station:wmo:42906:2,2020-05-01T12:23:00Z,28.6150,-87.9186,9.6,23.9,11111222
Shell,ioos:station:wmo:42906:2,2020-05-01T12:33:00Z,28.6150,-87.9186,9.7,23.9,11111222
Shell,ioos:station:wmo:42906:2,2020-05-01T12:43:00Z,28.6150,-87.9186,9.7,23.9,11111222
Shell,ioos:station:wmo:42906:2,2020-05-01T12:53:00Z,28.6150,-87.9186,9.7,23.9,11111222
Shell,ioos:station:wmo:42906:2,2020-05-01T13:03:00Z,28.6150,-87.9186,9.7,23.9,11111222
Shell,ioos:station:wmo:42906:2,2020-05-01T13:13:00Z,28.6150,-87.9186,9.8,23.9,11111222
Shell,ioos:station:wmo:42906:2,2020-05-01T13:23:00Z,28.6150,-87.9186,9.8,23.9,11111222
Shell,ioos:station:wmo:42906:2,2020-05-01T13:33:00Z,28.6150,-87.9186,9.7,23.9,11111222
Shell,ioos:station:wmo:42906:2,2020-05-01T13:43:00Z,28.6150,-87.9186,9.5,23.9,11111222
Shell,ioos:station:wmo:42906:2,2020-05-01T13:53:00Z,28.6150,-87.9186,9.6,23.9,11111222
Shell,ioos:station:wmo:42906:2,2020-05-01T14:03:00Z,28.6150,-87.9186,9.6,24.0,11111222
Shell,ioos:station:wmo:42906:2,2020-05-01T14:13:00Z,28.6150,-87.9186,9.6,24.0,11111222
Shell,ioos:station:wmo:42906:2,2020-05-01T14:23:00Z,28.6150,-87.9186,9.6,24.0,11111222
Shell,ioos:station:wmo:42906:2,2020-05-01T14:33:00Z,28.6150,-87.9186,9.6,24.0,11111222
Shell,ioos:station:wmo:42906:2,2020-05-01T14:44:00Z,28.6150,-87.9186,9.6,24.0,11111222
Shell,ioos:station:wmo:42906:2,2020-05-01T14:54:00Z,28.6150,-87.9186,9.6,24.0,11111222
Shell,ioos:station:wmo:42906:2,2020-05-01T15:04:00Z,28.6150,-87.9186,9.6,24.0,11111222
Shell,ioos:station:wmo:42906:2,2020-05-01T15:14:00Z,28.6150,-87.9186,9.5,24.0,11111222
Shell,ioos:station:wmo:42906:2,2020-05-01T15:24:00Z,28.6150,-87.9186,9.4,24.0,11111222
Shell,ioos:station:wmo:42906:2,2020-05-01T15:34:00Z,28.6150,-87.9186,9.7,24.0,11111222
Shell,ioos:station:wmo:42906:2,2020-05-01T15:44:00Z,28.6150,-87.9186,9.6,24.0,11111222
Shell,ioos:station:wmo:42906:2,2020-05-01T15:54:00Z,28.6150,-87.9186,9.5,24.0,11111222
Shell,ioos:station:wmo:42906:2,2020-05-01T16:04:00Z,28.6150,-87.9186,9.5,24.0,11111222
Shell,ioos:station:wmo:42906:2,2020-05-01T16:14:00Z,28.6150,-87.9186,9.5,24.1,11111222
Shell,ioos:station:wmo:42906:2,2020-05-01T16:24:00Z,28.6150,-87.9186,9.5,24.1,11111222
Shell,ioos:station:wmo:42906:2,2020-05-01T16:34:00Z,28.6150,-87.9186,9.4,24.1,11111222
Shell,ioos:station:wmo:42906:2,2020-05-01T16:44:00Z,28.6150,-87.9186,9.4,24.1,11111222
Shell,ioos:station:wmo:42906:2,2020-05-01T16:54:00Z,28.6150,-87.9186,9.3,24.2,11111222
Shell,ioos:station:wmo:42906:2,2020-05-01T17:04:00Z,28.6150,-87.9186,9.5,24.2,11111222
Shell,ioos:station:wmo:42906:2,2020-05-01T17:14:00Z,28.6150,-87.9186,9.5,24.2,11111222
Shell,ioos:station:wmo:42906:2,2020-05-01T17:24:00Z,28.6150,-87.9186,9.5,24.1,11111222
Shell,ioos:station:wmo:42906:2,2020-05-01T17:34:00Z,28.6150,-87.9186,9.5,24.1,11111222
Shell,ioos:station:wmo:42906:2,2020-05-01T17:44:00Z,28.6150,-87.9186,9.4,24.1,11111222
Shell,ioos:station:wmo:42906:2,2020-05-01T17:54:00Z,28.6150,-87.9186,9.5,24.1,11111222
Shell,ioos:station:wmo:42906:2,2020-05-01T18:04:00Z,28.6150,-87.9186,9.6,24.1,11111222
Shell,ioos:station:wmo:42906:2,2020-05-01T18:14:00Z,28.6150,-87.9186,9.7,24.1,11111222
Shell,ioos:station:wmo:42906:2,2020-05-01T18:24:00Z,28.6150,-87.9186,9.6,24.1,11111222
Shell,ioos:station:wmo:42906:2,2020-05-01T18:34:00Z,28.6150,-87.9186,9.6,24.1,11111222
Shell,ioos:station:wmo:42906:2,2020-05-01T18:44:00Z,28.6150,-87.9186,9.6,24.1,11111222
Shell,ioos:station:wmo:42906:2,2020-05-01T18:54:00Z,28.6150,-87.9186,9.6,24.1,11111222
Shell,ioos:station:wmo:42906:2,2020-05-01T19:04:00Z,28.6150,-87.9186,9.6,24.2,11111222
Shell,ioos:station:wmo:42906:2,2020-05-01T19:14:00Z,28.6150,-87.9186,9.7,24.2,11111222
Shell,ioos:station:wmo:42906:2,2020-05-01T19:24:00Z,28.6150,-87.9186,9.6,24.2,11111222
Shell,ioos:station:wmo:42906:2,2020-05-01T19:34:00Z,28.6150,-87.9186,9.5,24.2,11111222
Shell,ioos:station:wmo:42906:2,2020-05-01T19:44:00Z,28.6150,-87.9186,9.4,24.3,11111222
Shell,ioos:station:wmo:42906:2,2020-05-01T19:54:00Z,28.6150,-87.9186,9.5,24.4,11111222
Shell,ioos:station:wmo:42906:2,2020-05-01T20:04:00Z,28.6150,-87.9186,9.5,24.4,11111222
Shell,ioos:station:wmo:42906:2,2020-05-01T20:14:00Z,28.6150,-87.9186,9.5,24.4,11111222
Shell,ioos:station:wmo:42906:2,2020-05-01T20:24:00Z,28.6150,-87.9186,9.4,24.4,11111222
Shell,ioos:station:wmo:42906:2,2020-05-01T20:34:00Z,28.6150,-87.9186,9.4,24.5,11111222
Shell,ioos:station:wmo:42906:2,2020-05-01T20:44:00Z,28.6150,-87.9186,9.4,24.4,11111222
Shell,ioos:station:wmo:42906:2,2020-05-01T20:54:00Z,28.6150,-87.9186,9.5,24.4,11111222
Shell,ioos:station:wmo:42906:2,2020-05-01T21:04:00Z,28.6150,-87.9186,9.5,24.3,11111222
Shell,ioos:station:wmo:42906:2,2020-05-01T21:14:00Z,28.6150,-87.9186,9.6,24.4,11111222
Shell,ioos:station:wmo:42906:2,2020-05-01T21:24:00Z,28.6150,-87.9186,9.4,24.4,11111222
Shell,ioos:station:wmo:42906:2,2020-05-01T21:34:00Z,28.6150,-87.9186,9.5,24.4,11111222
Shell,ioos:station:wmo:42906:2,2020-05-01T21:44:00Z,28.6150,-87.9186,9.6,24.4,11111222
Shell,ioos:station:wmo:42906:2,2020-05-01T21:54:00Z,28.6150,-87.9186,9.5,24.4,11111222
Shell,ioos:station:wmo:42906:2,2020-05-01T22:05:00Z,28.6150,-87.9186,9.5,24.4,11111222
Shell,ioos:station:wmo:42906:2,2020-05-01T22:15:00Z,28.6150,-87.9186,9.5,24.4,11111222
Shell,ioos:station:wmo:42906:2,2020-05-01T22:25:00Z,28.6150,-87.9186,9.4,24.5,11111222
Shell,ioos:station:wmo:42906:2,2020-05-01T22:35:00Z,28.6150,-87.9186,9.3,24.5,11111222
Shell,ioos:station:wmo:42906:2,2020-05-01T22:45:00Z,28.6150,-87.9186,9.6,24.4,11111222
Shell,ioos:station:wmo:42906:2,2020-05-01T22:55:00Z,28.6150,-87.9186,9.6,24.5,11111222
Shell,ioos:station:wmo:42906:2,2020-05-01T23:05:00Z,28.6150,-87.9186,9.6,24.4,11111222
Shell,ioos:station:wmo:42906:2,2020-05-01T23:15:00Z,28.6150,-87.9186,9.6,24.4,11111222
Shell,ioos:station:wmo:42906:2,2020-05-01T23:25:00Z,28.6150,-87.9186,9.6,24.4,11111222
Shell,ioos:station:wmo:42906:2,2020-05-01T23:35:00Z,28.6150,-87.9186,9.6,24.4,11111222
Shell,ioos:station:wmo:42906:2,2020-05-01T23:45:00Z,28.6150,-87.9186,9.6,24.6,11111222
Shell,ioos:station:wmo:42906:2,2020-05-01T23:55:00Z,28.6150,-87.9186,9.5,24.5,11111222
Shell,ioos:station:wmo:42906:2,2020-05-02T00:05:00Z,28.6150,-87.9186,9.5,24.2,11111222
Shell,ioos:station:wmo:42906:2,2020-05-02T00:15:00Z,28.6150,-87.9186,9.5,24.2,11111222
Shell,ioos:station:wmo:42906:2,2020-05-02T00:25:00Z,28.6150,-87.9186,9.4,24.3,11111222
Shell,ioos:station:wmo:42906:2,2020-05-02T00:35:00Z,28.6150,-87.9186,9.5,24.3,11111222
Shell,ioos:station:wmo:42906:2,2020-05-02T00:45:00Z,28.6150,-87.9186,9.5,24.3,11111222
Shell,ioos:station:wmo:42906:2,2020-05-02T00:55:00Z,28.6150,-87.9186,9.5,24.3,11111222
Shell,ioos:station:wmo:42906:2,2020-05-02T01:05:00Z,28.6150,-87.9186,9.5,24.4,11111222
Shell,ioos:station:wmo:42906:2,2020-05-02T01:15:00Z,28.6150,-87.9186,9.5,24.3,11111222
Shell,ioos:station:wmo:42906:2,2020-05-02T01:25:00Z,28.6150,-87.9186,9.7,24.3,11111222
Shell,ioos:station:wmo:42906:2,2020-05-02T01:35:00Z,28.6150,-87.9186,9.6,24.2,11111222
Shell,ioos:station:wmo:42906:2,2020-05-02T01:45:00Z,28.6150,-87.9186,9.6,24.2,11111222
Shell,ioos:station:wmo:42906:2,2020-05-02T01:55:00Z,28.6150,-87.9186,9.5,24.2,11111222
Shell,ioos:station:wmo:42906:2,2020-05-02T02:05:00Z,28.6150,-87.9186,9.4,24.2,11111222
Shell,ioos:station:wmo:42906:2,2020-05-02T02:15:00Z,28.6150,-87.9186,9.5,24.2,11111222
Shell,ioos:station:wmo:42906:2,2020-05-02T02:25:00Z,28.6150,-87.9186,9.5,24.2,11111222
Shell,ioos:station:wmo:42906:2,2020-05-02T02:35:00Z,28.6150,-87.9186,9.5,24.2,11111222
Shell,ioos:station:wmo:42906:2,2020-05-02T02:45:00Z,28.6150,-87.9186,9.7,24.2,11111222
Shell,ioos:station:wmo:42906:2,2020-05-02T02:55:00Z,28.6150,-87.9186,9.7,24.1,11111222
Shell,ioos:station:wmo:42906:2,2020-05-02T03:05:00Z,28.6150,-87.9186,9.7,24.1,11111222
Shell,ioos:station:wmo:42906:2,2020-05-02T03:15:00Z,28.6150,-87.9186,9.7,24.1,11111222
Shell,ioos:station:wmo:42906:2,2020-05-02T03:25:00Z,28.6150,-87.9186,9.6,24.1,11111222
Shell,ioos:station:wmo:42906:2,2020-05-02T03:35:00Z,28.6150,-87.9186,9.5,24.1,11111222
Shell,ioos:station:wmo:42906:2,2020-05-02T03:45:00Z,28.6150,-87.9186,9.6,24.2,11111222
Shell,ioos:station:wmo:42906:2,2020-05-02T03:55:00Z,28.6150,-87.9186,9.5,24.3,11111222
Shell,ioos:station:wmo:42906:2,2020-05-02T04:05:00Z,28.6150,-87.9186,9.5,24.3,11111222
Shell,ioos:station:wmo:42906:2,2020-05-02T04:15:00Z,28.6150,-87.9186,9.5,24.3,11111222
Shell,ioos:station:wmo:42906:2,2020-05-02T04:25:00Z,28.6150,-87.9186,9.5,24.3,11111222
Shell,ioos:station:wmo:42906:2,2020-05-02T04:35:00Z,28.6150,-87.9186,9.5,24.2,11111222
Shell,ioos:station:wmo:42906:2,2020-05-02T04:45:00Z,28.6150,-87.9186,9.5,24.3,11111222
Shell,ioos:station:wmo:42906:2,2020-05-02T04:55:00Z,28.6150,-87.9186,9.5,24.3,11111222
Shell,ioos:station:wmo:42906:2,2020-05-02T05:05:00Z,28.6150,-87.9186,9.5,24.3,11111222
Shell,ioos:station:wmo:42906:2,2020-05-02T05:15:00Z,28.6150,-87.9186,9.5,24.3,11111222
Shell,ioos:station:wmo:42906:2,2020-05-02T05:26:00Z,28.6150,-87.9186,9.5,24.3,11111222
Shell,ioos:station:wmo:42906:2,2020-05-02T05:36:00Z,28.6150,-87.9186,9.5,24.2,11111222
Shell,ioos:station:wmo:42906:2,2020-05-02T05:46:00Z,28.6150,-87.9186,9.5,24.2,11111222
Shell,ioos:station:wmo:42906:2,2020-05-02T05:56:00Z,28.6150,-87.9186,9.5,24.2,11111222
Shell,ioos:station:wmo:42906:2,2020-05-02T06:06:00Z,28.6150,-87.9186,9.5,24.2,11111222
Shell,ioos:station:wmo:42906:2,2020-05-02T06:16:00Z,28.6150,-87.9186,9.6,24.2,11111222
Shell,ioos:station:wmo:42906:2,2020-05-02T06:26:00Z,28.6150,-87.9186,9.6,24.2,11111222
Shell,ioos:station:wmo:42906:2,2020-05-02T06:36:00Z,28.6150,-87.9186,9.4,24.2,11111222
Shell,ioos:station:wmo:42906:2,2020-05-02T06:46:00Z,28.6150,-87.9186,9.5,24.2,11111222
Shell,ioos:station:wmo:42906:2,2020-05-02T06:56:00Z,28.6150,-87.9186,9.4,24.1,11111222
Shell,ioos:station:wmo:42906:2,2020-05-02T07:06:00Z,28.6150,-87.9186,9.3,24.1,11111222
Shell,ioos:station:wmo:42906:2,2020-05-02T07:16:00Z,28.6150,-87.9186,9.3,24.2,11111222
Shell,ioos:station:wmo:42906:2,2020-05-02T07:26:00Z,28.6150,-87.9186,9.4,24.2,11111222
Shell,ioos:station:wmo:42906:2,2020-05-02T07:36:00Z,28.6150,-87.9186,9.3,24.1,11111222
Shell,ioos:station:wmo:42906:2,2020-05-02T07:46:00Z,28.6150,-87.9186,9.3,24.1,11111222
Shell,ioos:station:wmo:42906:2,2020-05-02T07:56:00Z,28.6150,-87.9186,9.4,24.1,11111222
Shell,ioos:station:wmo:42906:2,2020-05-02T08:06:00Z,28.6150,-87.9186,9.4,24.1,11111222
Shell,ioos:station:wmo:42906:2,2020-05-02T08:16:00Z,28.6150,-87.9186,9.4,24.1,11111222
Shell,ioos:station:wmo:42906:2,2020-05-02T08:26:00Z,28.6150,-87.9186,9.4,24.1,11111222
Shell,ioos:station:wmo:42906:2,2020-05-02T08:36:00Z,28.6150,-87.9186,9.4,24.1,11111222
Shell,ioos:station:wmo:42906:2,2020-05-02T08:46:00Z,28.6150,-87.9186,9.4,24.1,11111222
Shell,ioos:station:wmo:42906:2,2020-05-02T08:56:00Z,28.6150,-87.9186,9.4,24.1,11111222
Shell,ioos:station:wmo:42906:2,2020-05-02T09:06:00Z,28.6150,-87.9186,9.4,24.1,11111222
Shell,ioos:station:wmo:42906:2,2020-05-02T09:16:00Z,28.6150,-87.9186,9.4,24.1,11111222
Shell,ioos:station:wmo:42906:2,2020-05-02T09:26:00Z,28.6150,-87.9186,9.4,24.1,11111222
Shell,ioos:station:wmo:42906:2,2020-05-02T09:36:00Z,28.6150,-87.9186,9.4,24.0,11111222
Shell,ioos:station:wmo:42906:2,2020-05-02T09:46:00Z,28.6150,-87.9186,9.4,24.0,11111222
Shell,ioos:station:wmo:42906:2,2020-05-02T09:56:00Z,28.6150,-87.9186,9.4,24.0,11111222
Shell,ioos:station:wmo:42906:2,2020-05-02T10:06:00Z,28.6150,-87.9186,9.4,24.0,11111222
Shell,ioos:station:wmo:42906:2,2020-05-02T10:16:00Z,28.6150,-87.9186,9.4,24.0,11111222
Shell,ioos:station:wmo:42906:2,2020-05-02T10:26:00Z,28.6150,-87.9186,9.5,24.0,11111222
Shell,ioos:station:wmo:42906:2,2020-05-02T10:36:00Z,28.6150,-87.9186,9.5,24.0,11111222
Shell,ioos:station:wmo:42906:2,2020-05-02T10:46:00Z,28.6150,-87.9186,9.6,24.0,11111222
Shell,ioos:station:wmo:42906:2,2020-05-02T10:56:00Z,28.6150,-87.9186,9.6,24.1,11111222
Shell,ioos:station:wmo:42906:2,2020-05-02T11:06:00Z,28.6150,-87.9186,9.6,24.0,11111222
Shell,ioos:station:wmo:42906:2,2020-05-02T11:16:00Z,28.6150,-87.9186,9.6,24.0,11111222
Shell,ioos:station:wmo:42906:2,2020-05-02T11:26:00Z,28.6150,-87.9186,9.6,24.0,11111222
Shell,ioos:station:wmo:42906:2,2020-05-02T11:36:00Z,28.6150,-87.9186,9.5,24.0,11111222
Shell,ioos:station:wmo:42906:2,2020-05-02T11:46:00Z,28.6150,-87.9186,9.5,24.0,11111222
Shell,ioos:station:wmo:42906:2,2020-05-02T11:56:00Z,28.6150,-87.9186,9.5,24.0,11111222
Shell,ioos:station:wmo:42906:2,2020-05-02T12:06:00Z,28.6150,-87.9186,9.6,24.0,11111222
Shell,ioos:station:wmo:42906:2,2020-05-02T12:16:00Z,28.6150,-87.9186,9.6,24.0,11111222
Shell,ioos:station:wmo:42906:2,2020-05-02T12:26:00Z,28.6150,-87.9186,9.6,24.0,11111222
Shell,ioos:station:wmo:42906:2,2020-05-02T12:36:00Z,28.6150,-87.9186,9.5,24.0,11111222
Shell,ioos:station:wmo:42906:2,2020-05-02T12:47:00Z,28.6150,-87.9186,9.5,24.0,11111222
Shell,ioos:station:wmo:42906:2,2020-05-02T12:57:00Z,28.6150,-87.9186,9.5,24.0,11111222
Shell,ioos:station:wmo:42906:2,2020-05-02T13:07:00Z,28.6150,-87.9186,9.6,24.0,11111222
Shell,ioos:station:wmo:42906:2,2020-05-02T13:17:00Z,28.6150,-87.9186,9.5,24.0,11111222
Shell,ioos:station:wmo:42906:2,2020-05-02T13:27:00Z,28.6150,-87.9186,9.5,24.0,11111222
Shell,ioos:station:wmo:42906:2,2020-05-02T13:37:00Z,28.6150,-87.9186,9.5,24.0,11111222
Shell,ioos:station:wmo:42906:2,2020-05-02T13:47:00Z,28.6150,-87.9186,9.5,24.0,11111222
Shell,ioos:station:wmo:42906:2,2020-05-02T13:57:00Z,28.6150,-87.9186,9.5,24.0,11111222
Shell,ioos:station:wmo:42906:2,2020-05-02T14:07:00Z,28.6150,-87.9186,9.5,24.1,11111222
Shell,ioos:station:wmo:42906:2,2020-05-02T14:17:00Z,28.6150,-87.9186,9.5,24.1,11111222
Shell,ioos:station:wmo:42906:2,2020-05-02T14:27:00Z,28.6150,-87.9186,9.6,24.1,11111222
Shell,ioos:station:wmo:42906:2,2020-05-02T14:37:00Z,28.6150,-87.9186,9.6,24.1,11111222
Shell,ioos:station:wmo:42906:2,2020-05-02T14:47:00Z,28.6150,-87.9186,9.6,24.1,11111222
Shell,ioos:station:wmo:42906:2,2020-05-02T14:57:00Z,28.6150,-87.9186,9.5,24.1,11111222
Shell,ioos:station:wmo:42906:2,2020-05-02T15:07:00Z,28.6150,-87.9186,9.6,24.1,11111222
Shell,ioos:station:wmo:42906:2,2020-05-02T15:17:00Z,28.6150,-87.9186,9.5,24.1,11111222
Shell,ioos:station:wmo:42906:2,2020-05-02T15:27:00Z,28.6150,-87.9186,9.6,24.1,11111222
Shell,ioos:station:wmo:42906:2,2020-05-02T15:37:00Z,28.6150,-87.9186,9.5,24.1,11111222
Shell,ioos:station:wmo:42906:2,2020-05-02T15:47:00Z,28.6150,-87.9186,9.6,24.2,11111222
Shell,ioos:station:wmo:42906:2,2020-05-02T15:57:00Z,28.6150,-87.9186,9.6,24.2,11111222
Shell,ioos:station:wmo:42906:2,2020-05-02T16:07:00Z,28.6150,-87.9186,9.6,24.2,11111222
Shell,ioos:station:wmo:42906:2,2020-05-02T16:17:00Z,28.6150,-87.9186,9.6,24.3,11111222
Shell,ioos:station:wmo:42906:2,2020-05-02T16:27:00Z,28.6150,-87.9186,9.6,24.2,11111222
Shell,ioos:station:wmo:42906:2,2020-05-02T16:37:00Z,28.6150,-87.9186,9.6,24.3,11111222
Shell,ioos:station:wmo:42906:2,2020-05-02T16:47:00Z,28.6150,-87.9186,9.6,24.5,11111222
Shell,ioos:station:wmo:42906:2,2020-05-02T16:57:00Z,28.6150,-87.9186,9.6,24.4,11111222
Shell,ioos:station:wmo:42906:2,2020-05-02T17:07:00Z,28.6150,-87.9186,9.6,24.5,11111222
Shell,ioos:station:wmo:42906:2,2020-05-02T17:17:00Z,28.6150,-87.9186,9.6,24.5,11111222
Shell,ioos:station:wmo:42906:2,2020-05-02T17:27:00Z,28.6150,-87.9186,9.6,24.5,11111222
Shell,ioos:station:wmo:42906:2,2020-05-02T17:37:00Z,28.6150,-87.9186,9.6,24.6,11111222
Shell,ioos:station:wmo:42906:2,2020-05-02T17:47:00Z,28.6150,-87.9186,9.6,24.7,11111222
Shell,ioos:station:wmo:42906:2,2020-05-02T17:57:00Z,28.6150,-87.9186,9.6,24.6,11111222
Shell,ioos:station:wmo:42906:2,2020-05-02T18:07:00Z,28.6150,-87.9186,9.6,24.6,11111222
Shell,ioos:station:wmo:42906:2,2020-05-02T18:17:00Z,28.6150,-87.9186,9.6,24.6,11111222
Shell,ioos:station:wmo:42906:2,2020-05-02T18:27:00Z,28.6150,-87.9186,9.5,24.7,11111222
Shell,ioos:station:wmo:42906:2,2020-05-02T18:37:00Z,28.6150,-87.9186,9.6,24.9,11111222
Shell,ioos:station:wmo:42906:2,2020-05-02T18:47:00Z,28.6150,-87.9186,9.6,24.9,11111222
Shell,ioos:station:wmo:42906:2,2020-05-02T18:57:00Z,28.6150,-87.9186,9.6,24.9,11111222
Shell,ioos:station:wmo:42906:2,2020-05-02T19:07:00Z,28.6150,-87.9186,9.5,24.9,11111222
Shell,ioos:station:wmo:42906:2,2020-05-02T19:17:00Z,28.6150,-87.9186,9.5,25.0,11111222
Shell,ioos:station:wmo:42906:2,2020-05-02T19:27:00Z,28.6150,-87.9186,9.5,25.0,11111222
Shell,ioos:station:wmo:42906:2,2020-05-02T19:37:00Z,28.6150,-87.9186,9.5,25.0,11111222
Shell,ioos:station:wmo:42906:2,2020-05-02T19:47:00Z,28.6150,-87.9186,9.5,24.8,11111222
Shell,ioos:station:wmo:42906:2,2020-05-02T19:57:00Z,28.6150,-87.9186,9.5,24.8,11111222
Shell,ioos:station:wmo:42906:2,2020-05-02T20:08:00Z,28.6150,-87.9186,9.5,24.8,11111222
Shell,ioos:station:wmo:42906:2,2020-05-02T20:18:00Z,28.6150,-87.9186,9.5,24.9,11111222
Shell,ioos:station:wmo:42906:2,2020-05-02T20:28:00Z,28.6150,-87.9186,9.5,25.0,11111222
Shell,ioos:station:wmo:42906:2,2020-05-02T20:38:00Z,28.6150,-87.9186,9.5,25.0,11111222
Shell,ioos:station:wmo:42906:2,2020-05-02T20:48:00Z,28.6150,-87.9186,9.6,25.0,11111222
Shell,ioos:station:wmo:42906:2,2020-05-02T20:58:00Z,28.6150,-87.9186,9.6,25.0,11111222
Shell,ioos:station:wmo:42906:2,2020-05-02T21:08:00Z,28.6150,-87.9186,9.6,24.9,11111222